Lowell, ID

4:11 PM MDT on July 15, 2018 (GMT -0600)
Lowell

Weather History for KP69 - September, 2017

Change the Weather History Date:

Thursday, September 21, 2017

  Actual Average Record
Temperature  
Mean Temperature 52 °F -  
Max Temperature 61 °F 72 °F 84 °F (2014)
Min Temperature 43 °F 45 °F 36 °F (2002)
Degree Days  
Heating Degree Days 12    
Growing Degree Days 2 (Base 50)    
Moisture  
Dew Point 42 °F    
Average Humidity 78    
Maximum Humidity 93    
Minimum Humidity 44    
Precipitation  
Precipitation 0.03 in - - ()
Sea Level Pressure  
Sea Level Pressure 29.89 in    
Wind  
Wind Speed 0 mph (NNW)    
Max Wind Speed 5 mph    
Max Gust Speed -    
Averages and records for this station are not official NWS values.
T = Trace of Precipitation, MM = Missing Value Source: NWS Daily Summary

Daily Weather History Graph

Daily Weather History Graph

Search for Another Location

Airport or City:

Astronomy

Sep. 21, 2017 Rise Set
Actual Time 7:28 AM MDT 7:41 PM MDT
Civil Twilight 6:58 AM MDT 8:11 PM MDT
Nautical Twilight 6:23 AM MDT 8:46 PM MDT
Astronomical Twilight 5:47 AM MDT 9:22 PM MDT
Moon 8:54 AM MDT (9/21) 8:46 PM MDT (9/21)
Length of Visible Light 13h 12m
Length of Day
12h 12m
Waxing Crescent, 3% of the Moon is Illuminated
Sep 21
Waxing Crescent
Sep 27
First Quarter
Oct 5
Full
Oct 12
Last Quarter
Oct 19
New

Hourly Weather History & Observations

Time (MDT) Temp. Windchill Dew Point Humidity Pressure Visibility Wind Dir Wind Speed Gust Speed Precip Events Conditions
12:52 AM 46.9 °F - 44.1 °F 90% 29.82 in - Calm Calm - N/A   Unknown
1:52 AM 46.0 °F - 43.0 °F 89% 29.82 in - Calm Calm - N/A   Unknown
2:52 AM 46.0 °F - 43.0 °F 89% 29.84 in - Calm Calm - N/A   Unknown
3:52 AM 46.0 °F - 43.0 °F 89% 29.85 in - Calm Calm - N/A   Unknown
4:52 AM 46.0 °F - 43.0 °F 89% 29.85 in - Calm Calm - N/A   Unknown
5:52 AM 45.0 °F - 42.1 °F 90% 29.87 in - Calm Calm - N/A   Unknown
6:52 AM 45.0 °F - 42.1 °F 90% 29.88 in - Calm Calm - N/A   Unknown
7:52 AM 45.0 °F - 43.0 °F 93% 29.89 in - Calm Calm - 0.01 in   Unknown
8:52 AM 45.0 °F - 42.1 °F 90% 29.92 in - Calm Calm - N/A   Unknown
9:52 AM 46.0 °F - 42.1 °F 86% 29.92 in - Calm Calm - 0.02 in   Unknown
10:52 AM 51.1 °F - 43.0 °F 74% 29.90 in - Calm Calm - N/A   Unknown
11:52 AM 54.0 °F - 42.1 °F 64% 29.89 in - North 3.5 mph - N/A   Unknown
12:52 PM 55.9 °F - 41.0 °F 57% 29.87 in - Calm Calm - N/A   Unknown
1:52 PM 55.0 °F - 45.0 °F 69% 29.88 in - NNW 3.5 mph - N/A   Unknown
2:52 PM 59.0 °F - 39.9 °F 49% 29.87 in - Calm Calm - N/A   Unknown
3:52 PM 57.9 °F - 39.9 °F 51% 29.89 in - Variable 4.6 mph - N/A   Unknown
4:52 PM 61.0 °F - 39.0 °F 44% 29.87 in - Variable 3.5 mph - N/A   Unknown
5:52 PM 52.0 °F - 43.0 °F 71% 29.89 in - Calm Calm - N/A   Unknown
6:52 PM 50.0 °F - 43.0 °F 77% 29.87 in - Calm Calm - N/A   Unknown
7:52 PM 48.0 °F - 43.0 °F 83% 29.92 in - Calm Calm - N/A   Unknown
8:52 PM 46.0 °F - 42.1 °F 86% 29.94 in - Calm Calm - N/A   Unknown
9:52 PM 45.0 °F 43.5 °F 41.0 °F 86% 29.95 in - North 3.5 mph - N/A   Unknown
10:52 PM 44.1 °F - 41.0 °F 89% 29.95 in - Calm Calm - N/A   Unknown
11:52 PM 43.0 °F - 39.9 °F 89% 29.96 in - Calm Calm - N/A   Unknown